Regional Weather Roundup
Issued by NWS Upton, NY

Current Version | Previous Version | Text Only | Print | Product List | Glossary On
Versions: 1 2 3 4 5 6 7 8 9 10 11 12 13 14 15 16 17 18 19 20 21 22 23 24 25 26 27 28 29 30 31 32 33 34 35 36 37 38 39 40 41 42 43 44 45 46 47 48 49 50
409 ASUS41 KOKX 091004 RWROKX REGIONAL WEATHER ROUNDUP NATIONAL WEATHER SERVICE NEW YORK NY 500 AM EST TUE FEB 09 2016 NOTE: "FAIR" INDICATES FEW OR NO CLOUDS BELOW 12,000 FEET WITH NO SIGNIFICANT WEATHER AND/OR OBSTRUCTIONS TO VISIBILITY. NYZ071-072-176-178-NJZ106-104-091100- NEW YORK CITY METRO AREA CITY SKY/WX TMP DP RH WIND PRES REMARKS CENTRAL PARK CLOUDY 27 21 78 NE8 29.67F WCI 19 LAGUARDIA APRT FLURRIES 28 23 81 NE13 29.66F WCI 17 KENNEDY INTL PTCLDY 27 21 78 NE9 29.67F WCI 18 NEWARK/LIBERTY FLURRIES 29 23 78 NE8 29.66F WCI 21 BRNX BOT. GARD N/A 27 21 80 W3 29.68F TETERBORO FLURRIES 27 20 75 N7 29.66F WCI 19 $$ NYZ177-179-078>081-091100- LONG ISLAND NEW YORK CITY SKY/WX TMP DP RH WIND PRES REMARKS FARMINGDALE CLOUDY 26 20 77 NE12 29.65F WCI 16 ISLIP CLOUDY 25 19 78 NE13 29.64F WCI 14 SHIRLEY CLOUDY 25 19 78 N5 29.67F WCI 19 RIVERHEAD N/A 27 19 74 E3 29.65F WESTHAMPTON CLOUDY 24 20 84 N12 29.68F WCI 13 EAST HAMPTON CLOUDY 24 20 85 N6 29.69F WCI 17 MONTAUK POINT N/A 25 20 81 N10 29.68F WCI 15 $$ NYZ052-065-067-091100- HUDSON VALLEY CITY SKY/WX TMP DP RH WIND PRES REMARKS WHITE PLAINS CLOUDY 23 18 81 NE8 29.64F WCI 14 NEWBURGH LGT SNOW 21 21 100 NE7 29.68F WCI 13 MONTGOMERY CLOUDY 24 20 84 NE7 29.66F WCI 16 POUGHKEEPSIE CLOUDY 24 19 81 NE3 29.69F ALBANY LGT SNOW 25 21 85 S3 29.70S FOG $$ NJZ001-105-106-008-010-013-015-019>022-104-091100- NEW JERSEY CITY SKY/WX TMP DP RH WIND PRES REMARKS NEWARK/LIBERTY FLURRIES 29 23 78 NE8 29.66F WCI 21 TETERBORO FLURRIES 27 20 75 N7 29.66F WCI 19 CALDWELL CLOUDY 26 20 77 NE8 29.66F WCI 18 MORRISTOWN CLOUDY 27 21 80 NE6 29.67F WCI 20 SOMERVILLE CLOUDY 28 23 81 NE7 29.63F WCI 21 SUSSEX CLOUDY 25 21 85 NE7 29.64F WCI 17 ANDOVER N/A 26 20 77 VRB3 29.63F TRENTON CLOUDY 29 25 85 NE8 29.62F WCI 21 MILLVILLE CLOUDY 33 32 96 E9 29.61R WCI 25 ATLANTIC CITY CLOUDY 34 30 85 NE6 29.62R WCI 29 WRIGHTSTOWN CLOUDY 30 30 100 NE9 29.60F WCI 22 TOMS RIVER CLOUDY 32 27 80 NE8 29.63R WCI 25 BELMAR CLOUDY 30 21 69 NE12 29.63S WCI 21 $$ PAZ047>061-062-071-091100- EASTERN PENNSYLVANIA CITY SKY/WX TMP DP RH WIND PRES REMARKS PHILADELPHIA CLOUDY 32 27 81 NE10 29.64S WCI 24 ALLENTOWN CLOUDY 29 24 82 NE8 29.62F WCI 21 SCRANTON LGT SNOW 28 23 81 NE5 29.57F WCI 23 $$ CTZ002-004>006-009-010-012-RIZ004-006-007-MAZ004-011-015-091100- SOUTHERN NEW ENGLAND IN CT CITY SKY/WX TMP DP RH WIND PRES REMARKS BRADLEY INTL FLURRIES 19 16 88 N3 29.73S HARTFORD LGT SNOW 21 17 84 N6 29.74F FOG WCI 13 DANBURY MOCLDY 20 15 81 NE5 29.68F WCI 13 WTRBRY/OXFORD PTCLDY 19 9 63 NE9 29.66F WCI 9 BRIDGEPORT CLOUDY 24 18 77 NE14 29.69F WCI 12 MERIDEN FLURRIES 22 17 81 N6 29.72F WCI 14 NEW HAVEN PTCLDY 21 17 84 N9 29.69F WCI 11 CHESTER PTSUNNY 21 19 93 N5 29.69F WCI 15 GROTON CLOUDY 21 18 88 N8 29.70F WCI 11 WILLIMANTIC LGT SNOW 20 15 81 N3 29.73S IN RI CITY SKY/WX TMP DP RH WIND PRES REMARKS PROVIDENCE CLOUDY 21 16 81 N8 29.74R WCI 11 BLOCK ISLAND CLOUDY 25 21 86 N10 29.67F WCI 15 WESTERLY CLOUDY 22 16 78 N7 29.71F WCI 13 IN MA CITY SKY/WX TMP DP RH WIND PRES REMARKS BOSTON CLOUDY 20 15 81 N12 29.74S WCI 8 WORCESTER LGT SNOW 16 12 84 NE8 29.66F VSB 1 WCI 5 WESTFIELD FLURRIES 20 16 84 CALM 29.73S PROVINCETOWN CLOUDY 29 25 85 NE10 29.71S WCI 20 NANTUCKET LGT SNOW 32 28 85 N13 29.67F FOG WCI 22 $$ ANZ330-335-338-340-345-350-353-355-091100- COASTAL MARINE OBSERVATIONS STATION/POSITION TIME SKY/WX TEMP WIND PRES VSBY WAVE AIR SEA DIR/SP/G HT/PER (UTC) (F) (DEG/KT/KT) (MB) (MI) (FT/S) NY HARB ENTRANCE 0850 31 43 50/ 17/ 21 1003.9 7/12 4S FIRE IS NOT AVBL 20S FIRE ISLAND 0850 32 45 60/ 16/ 17 1004.2 7/11 GREAT SOUTH BAY NOT AVBL 23SW MTP 0950 31 46 30/ 19/ 25 1003.0 9/11 HUDSON CANYON 0850 37 49 1003.1 13/13 KINGS POINT 0900 27 39 90/ 7/ 9 1005.1 EXECUTION ROCKS NOT AVBL CENTRAL LI SOUND 0930 25 30/ 12/ 14 N/A 1/ 4 EASTERN LI SOUND 0900 24 42 350/ 6/ 10 N/A ROBBINS REEF 0900 27 50/ 12/ 14 1004.5 $$ >>>>>>>>>>>>>>>>>>>>>>>>>>>> KEY <<<<<<<<<<<<<<<<<<<<<<<<<<< > < > SKY/WX - SKY CONDITION/PRESENT WEATHER < > TMP - TEMPERATURE IN FAHRENHEIT < > DP - DEWPOINT IN FAHRENHEIT < > RH - RELATIVE HUMIDITY IN PERCENT < > WIND - DIRECTION AND SPEED IN MPH < > PRES - MEAN SEA LEVEL PRESSURE IN INCHES OF HG < > WCI - WIND CHILL INDEX < > VSB - VISIBILITY IN MILES < > HX - HEAT INDEX < > TC - TEMPERATURE IN CELSIUS < > VRB - VARIABLE WIND DIRECTION < > < >>>>>>>>>>>>>>>>>>>>>>>>>>>> KEY <<<<<<<<<<<<<<<<<<<<<<<<<<<

USA.gov is the U.S. government's official web portal to all federal, state and local government web resources and services.